Year,Month,Day,Hour,Minute,Value (Times are PST for temperature in C)
2018,05,05,00,00,9.80
2018,05,05,00,01,9.70
2018,05,05,00,02,9.70
2018,05,05,00,03,9.70
2018,05,05,00,04,9.60
2018,05,05,00,05,9.60
2018,05,05,00,06,9.50
2018,05,05,00,07,9.50
2018,05,05,00,08,9.40
2018,05,05,00,09,9.40
2018,05,05,00,10,9.30
2018,05,05,00,11,9.30
2018,05,05,00,12,9.30
2018,05,05,00,13,9.30
2018,05,05,00,14,9.30
2018,05,05,00,15,9.30
2018,05,05,00,16,9.30
2018,05,05,00,17,9.30
2018,05,05,00,18,9.30
2018,05,05,00,19,9.20
2018,05,05,00,20,9.20
2018,05,05,00,21,9.20
2018,05,05,00,22,9.20
2018,05,05,00,23,9.20
2018,05,05,00,24,9.20
2018,05,05,00,25,9.10
2018,05,05,00,26,9.10
2018,05,05,00,27,9.10
2018,05,05,00,28,9.10
2018,05,05,00,29,9.10
2018,05,05,00,30,9.00
2018,05,05,00,31,9.00
2018,05,05,00,32,9.00
2018,05,05,00,33,9.00
2018,05,05,00,34,8.90
2018,05,05,00,35,9.00
2018,05,05,00,36,9.00
2018,05,05,00,37,9.00
2018,05,05,00,38,8.90
2018,05,05,00,39,8.90
2018,05,05,00,40,8.90
2018,05,05,00,41,8.90
2018,05,05,00,42,8.90
2018,05,05,00,43,8.90
2018,05,05,00,44,8.80
2018,05,05,00,45,8.80
2018,05,05,00,46,8.80
2018,05,05,00,47,8.80
2018,05,05,00,48,8.80
2018,05,05,00,49,8.80
2018,05,05,00,50,8.80
2018,05,05,00,51,8.80
2018,05,05,00,52,8.80
2018,05,05,00,53,8.80
2018,05,05,00,54,8.80
2018,05,05,00,55,8.80
2018,05,05,00,56,8.80
2018,05,05,00,57,8.70
2018,05,05,00,58,8.70
2018,05,05,00,59,8.70
2018,05,05,01,00,8.70
2018,05,05,01,01,8.70
2018,05,05,01,02,8.70
2018,05,05,01,03,8.70
2018,05,05,01,04,8.70
2018,05,05,01,05,8.70
2018,05,05,01,06,8.60
2018,05,05,01,07,8.60
2018,05,05,01,08,8.60
2018,05,05,01,09,8.60
2018,05,05,01,10,8.60
2018,05,05,01,11,8.60
2018,05,05,01,12,8.50
2018,05,05,01,13,8.50
2018,05,05,01,14,8.50
2018,05,05,01,15,8.50
2018,05,05,01,16,8.50
2018,05,05,01,17,8.40
2018,05,05,01,18,8.40
2018,05,05,01,19,8.40
2018,05,05,01,20,8.40
2018,05,05,01,21,8.40
2018,05,05,01,22,8.40
2018,05,05,01,23,8.50
2018,05,05,01,24,8.60
2018,05,05,01,25,8.60
2018,05,05,01,26,8.60
2018,05,05,01,27,8.60
2018,05,05,01,28,8.70
2018,05,05,01,29,8.70
2018,05,05,01,30,8.70
2018,05,05,01,31,8.70
2018,05,05,01,32,8.70
2018,05,05,01,33,8.60
2018,05,05,01,34,8.60
2018,05,05,01,35,8.60
2018,05,05,01,36,8.60
2018,05,05,01,37,8.60
2018,05,05,01,38,8.60
2018,05,05,01,39,8.60
2018,05,05,01,40,8.60
2018,05,05,01,41,8.70
2018,05,05,01,42,8.70
2018,05,05,01,43,8.70
2018,05,05,01,44,8.80
2018,05,05,01,45,8.80
2018,05,05,01,46,8.80
2018,05,05,01,47,8.80
2018,05,05,01,48,8.80
2018,05,05,01,49,8.80
2018,05,05,01,50,8.80
2018,05,05,01,51,8.80
2018,05,05,01,52,8.70
2018,05,05,01,53,8.70
2018,05,05,01,54,8.70
2018,05,05,01,55,8.70
2018,05,05,01,56,8.70
2018,05,05,01,57,8.70
2018,05,05,01,58,8.70
2018,05,05,01,59,8.70
2018,05,05,02,00,8.80
2018,05,05,02,01,8.80
2018,05,05,02,02,8.80
2018,05,05,02,03,8.90
2018,05,05,02,04,8.90
2018,05,05,02,05,8.90
2018,05,05,02,06,9.00
2018,05,05,02,07,9.00
2018,05,05,02,08,9.00
2018,05,05,02,09,9.10
2018,05,05,02,10,9.10
2018,05,05,02,11,9.10
2018,05,05,02,12,9.10
2018,05,05,02,13,9.10
2018,05,05,02,14,9.20
2018,05,05,02,15,9.20
2018,05,05,02,16,9.20
2018,05,05,02,17,9.20
2018,05,05,02,18,9.20
2018,05,05,02,19,9.20
2018,05,05,02,20,9.20
2018,05,05,02,21,9.20
2018,05,05,02,22,9.20
2018,05,05,02,23,9.30
2018,05,05,02,24,9.30
2018,05,05,02,25,9.30
2018,05,05,02,26,9.20
2018,05,05,02,27,9.20
2018,05,05,02,28,9.20
2018,05,05,02,29,9.20
2018,05,05,02,30,9.20
2018,05,05,02,31,9.20
2018,05,05,02,32,9.20
2018,05,05,02,33,9.20
2018,05,05,02,34,9.20
2018,05,05,02,35,9.20
2018,05,05,02,36,9.20
2018,05,05,02,37,9.20
2018,05,05,02,38,9.20
2018,05,05,02,39,9.20
2018,05,05,02,40,9.20
2018,05,05,02,41,9.20
2018,05,05,02,42,9.20
2018,05,05,02,43,9.20
2018,05,05,02,44,9.20
2018,05,05,02,45,9.20
2018,05,05,02,46,9.20
2018,05,05,02,47,9.20
2018,05,05,02,48,9.20
2018,05,05,02,49,9.20
2018,05,05,02,50,9.20
2018,05,05,02,51,9.20
2018,05,05,02,52,9.20
2018,05,05,02,53,9.20
2018,05,05,02,54,9.20
2018,05,05,02,55,9.20
2018,05,05,02,56,9.20
2018,05,05,02,57,9.20
2018,05,05,02,58,9.20
2018,05,05,02,59,9.20
2018,05,05,03,00,9.20
2018,05,05,03,01,9.20
2018,05,05,03,02,9.20
2018,05,05,03,03,9.20
2018,05,05,03,04,9.20
2018,05,05,03,05,9.20
2018,05,05,03,06,9.20
2018,05,05,03,07,9.20
2018,05,05,03,08,9.20
2018,05,05,03,09,9.20
2018,05,05,03,10,9.20
2018,05,05,03,11,9.20
2018,05,05,03,12,9.10
2018,05,05,03,13,9.20
2018,05,05,03,14,9.10
2018,05,05,03,15,9.10
2018,05,05,03,16,9.10
2018,05,05,03,17,9.10
2018,05,05,03,18,9.10
2018,05,05,03,19,9.10
2018,05,05,03,20,9.10
2018,05,05,03,21,9.10
2018,05,05,03,22,9.10
2018,05,05,03,23,9.10
2018,05,05,03,24,9.10
2018,05,05,03,25,9.10
2018,05,05,03,26,9.10
2018,05,05,03,27,9.10
2018,05,05,03,28,9.10
2018,05,05,03,29,9.10
2018,05,05,03,30,9.10
2018,05,05,03,31,9.10
2018,05,05,03,32,9.10
2018,05,05,03,33,9.10
2018,05,05,03,34,9.10
2018,05,05,03,35,9.00
2018,05,05,03,36,9.00
2018,05,05,03,37,9.00
2018,05,05,03,38,9.00
2018,05,05,03,39,9.00
2018,05,05,03,40,9.00
2018,05,05,03,41,9.00
2018,05,05,03,42,9.00
2018,05,05,03,43,9.00
2018,05,05,03,44,9.00
2018,05,05,03,45,8.90
2018,05,05,03,46,8.90
2018,05,05,03,47,8.90
2018,05,05,03,48,8.90
2018,05,05,03,49,8.90
2018,05,05,03,50,8.80
2018,05,05,03,51,8.80
2018,05,05,03,52,8.80
2018,05,05,03,53,8.80
2018,05,05,03,54,8.70
2018,05,05,03,55,8.70
2018,05,05,03,56,8.60
2018,05,05,03,57,8.60
2018,05,05,03,58,8.50
2018,05,05,03,59,8.40
2018,05,05,04,00,8.40
2018,05,05,04,01,8.40
2018,05,05,04,02,8.30
2018,05,05,04,03,8.30
2018,05,05,04,04,8.30
2018,05,05,04,05,8.20
2018,05,05,04,06,8.20
2018,05,05,04,07,8.20
2018,05,05,04,08,8.20
2018,05,05,04,09,8.20
2018,05,05,04,10,8.30
2018,05,05,04,11,8.30
2018,05,05,04,12,8.40
2018,05,05,04,13,8.40
2018,05,05,04,14,8.40
2018,05,05,04,15,8.40
2018,05,05,04,16,8.40
2018,05,05,04,17,8.30
2018,05,05,04,18,8.30
2018,05,05,04,19,8.20
2018,05,05,04,20,8.20
2018,05,05,04,21,8.10
2018,05,05,04,22,8.10
2018,05,05,04,23,8.10
2018,05,05,04,24,8.10
2018,05,05,04,25,8.00
2018,05,05,04,26,8.00
2018,05,05,04,27,8.00
2018,05,05,04,28,8.00
2018,05,05,04,29,8.00
2018,05,05,04,30,8.00
2018,05,05,04,31,7.90
2018,05,05,04,32,7.90
2018,05,05,04,33,7.90
2018,05,05,04,34,7.90
2018,05,05,04,35,8.00
2018,05,05,04,36,8.00
2018,05,05,04,37,8.10
2018,05,05,04,38,8.10
2018,05,05,04,39,8.10
2018,05,05,04,40,8.10
2018,05,05,04,41,8.10
2018,05,05,04,42,8.10
2018,05,05,04,43,8.10
2018,05,05,04,44,8.20
2018,05,05,04,45,8.20
2018,05,05,04,46,8.20
2018,05,05,04,47,8.20
2018,05,05,04,48,8.20
2018,05,05,04,49,8.30
2018,05,05,04,50,8.30
2018,05,05,04,51,8.30
2018,05,05,04,52,8.40
2018,05,05,04,53,8.40
2018,05,05,04,54,8.40
2018,05,05,04,55,8.40
2018,05,05,04,56,8.40
2018,05,05,04,57,8.40
2018,05,05,04,58,8.40
2018,05,05,04,59,8.50
2018,05,05,05,00,8.50
2018,05,05,05,01,8.50
2018,05,05,05,02,8.50
2018,05,05,05,03,8.50
2018,05,05,05,04,8.50
2018,05,05,05,05,8.50
2018,05,05,05,06,8.40
2018,05,05,05,07,8.40
2018,05,05,05,08,8.40
2018,05,05,05,09,8.40
2018,05,05,05,10,8.40
2018,05,05,05,11,8.40
2018,05,05,05,12,8.40
2018,05,05,05,13,8.40
2018,05,05,05,14,8.40
2018,05,05,05,15,8.40
2018,05,05,05,16,8.40
2018,05,05,05,17,8.40
2018,05,05,05,18,8.40
2018,05,05,05,19,8.40
2018,05,05,05,20,8.40
2018,05,05,05,21,8.40
2018,05,05,05,22,8.40
2018,05,05,05,23,8.40
2018,05,05,05,24,8.50
2018,05,05,05,25,8.50
2018,05,05,05,26,8.50
2018,05,05,05,27,8.50
2018,05,05,05,28,8.50
2018,05,05,05,29,8.60
2018,05,05,05,30,8.60
2018,05,05,05,31,8.60
2018,05,05,05,32,8.60
2018,05,05,05,33,8.70
2018,05,05,05,34,8.70
2018,05,05,05,35,8.60
2018,05,05,05,36,8.60
2018,05,05,05,37,8.60
2018,05,05,05,38,8.60
2018,05,05,05,39,8.60
2018,05,05,05,40,8.60
2018,05,05,05,41,8.60
2018,05,05,05,42,8.60
2018,05,05,05,43,8.60
2018,05,05,05,44,8.60
2018,05,05,05,45,8.70
2018,05,05,05,46,8.70
2018,05,05,05,47,8.60
2018,05,05,05,48,8.60
2018,05,05,05,49,8.60
2018,05,05,05,50,8.60
2018,05,05,05,51,8.60
2018,05,05,05,52,8.60
2018,05,05,05,53,8.60
2018,05,05,05,54,8.60
2018,05,05,05,55,8.60
2018,05,05,05,56,8.60
2018,05,05,05,57,8.60
2018,05,05,05,58,8.60
2018,05,05,05,59,8.60
2018,05,05,06,00,8.60
2018,05,05,06,01,8.60
2018,05,05,06,02,8.60
2018,05,05,06,03,8.60
2018,05,05,06,04,8.60
2018,05,05,06,05,8.60
2018,05,05,06,06,8.50
2018,05,05,06,07,8.50
2018,05,05,06,08,8.50
2018,05,05,06,09,8.50
2018,05,05,06,10,8.50
2018,05,05,06,11,8.50
2018,05,05,06,12,8.50
2018,05,05,06,13,8.50
2018,05,05,06,14,8.50
2018,05,05,06,15,8.50
2018,05,05,06,16,8.50
2018,05,05,06,17,8.50
2018,05,05,06,18,8.50
2018,05,05,06,19,8.50
2018,05,05,06,20,8.60
2018,05,05,06,21,8.60
2018,05,05,06,22,8.60
2018,05,05,06,23,8.60
2018,05,05,06,24,8.60
2018,05,05,06,25,8.60
2018,05,05,06,26,8.60
2018,05,05,06,27,8.60
2018,05,05,06,28,8.60
2018,05,05,06,29,8.60
2018,05,05,06,30,8.60
2018,05,05,06,31,8.60
2018,05,05,06,32,8.70
2018,05,05,06,33,8.70
2018,05,05,06,34,8.70
2018,05,05,06,35,8.70
2018,05,05,06,36,8.70
2018,05,05,06,37,8.80
2018,05,05,06,38,8.80
2018,05,05,06,39,8.80
2018,05,05,06,40,8.80
2018,05,05,06,41,8.80
2018,05,05,06,42,8.80
2018,05,05,06,43,8.80
2018,05,05,06,44,8.90
2018,05,05,06,45,8.90
2018,05,05,06,46,8.90
2018,05,05,06,47,8.90
2018,05,05,06,48,8.90
2018,05,05,06,49,8.90
2018,05,05,06,50,9.00
2018,05,05,06,51,9.00
2018,05,05,06,52,9.00
2018,05,05,06,53,9.00
2018,05,05,06,54,9.10
2018,05,05,06,55,9.10
2018,05,05,06,56,9.10
2018,05,05,06,57,9.10
2018,05,05,06,58,9.20
2018,05,05,06,59,9.20
2018,05,05,07,00,9.20
2018,05,05,07,01,9.30
2018,05,05,07,02,9.30
2018,05,05,07,03,9.30
2018,05,05,07,04,9.40
2018,05,05,07,05,9.40
2018,05,05,07,06,9.50
2018,05,05,07,07,9.50
2018,05,05,07,08,9.60
2018,05,05,07,09,9.60
2018,05,05,07,10,9.60
2018,05,05,07,11,9.70
2018,05,05,07,12,9.70
2018,05,05,07,13,9.70
2018,05,05,07,14,9.80
2018,05,05,07,15,9.80
2018,05,05,07,16,9.90
2018,05,05,07,17,9.90
2018,05,05,07,18,10.00
2018,05,05,07,19,10.00
2018,05,05,07,20,10.10
2018,05,05,07,21,10.10
2018,05,05,07,22,10.10
2018,05,05,07,23,10.20
2018,05,05,07,24,10.20
2018,05,05,07,25,10.30
2018,05,05,07,26,10.30
2018,05,05,07,27,10.30
2018,05,05,07,28,10.40
2018,05,05,07,29,10.40
2018,05,05,07,30,10.50
2018,05,05,07,31,10.60
2018,05,05,07,32,10.60
2018,05,05,07,33,10.60
2018,05,05,07,34,10.70
2018,05,05,07,35,10.70
2018,05,05,07,36,10.80
2018,05,05,07,37,10.80
2018,05,05,07,38,10.80
2018,05,05,07,39,10.90
2018,05,05,07,40,11.00
2018,05,05,07,41,11.00
2018,05,05,07,42,11.10
2018,05,05,07,43,11.10
2018,05,05,07,44,11.10
2018,05,05,07,45,11.20
2018,05,05,07,46,11.20
2018,05,05,07,47,11.20
2018,05,05,07,48,11.30
2018,05,05,07,49,11.30
2018,05,05,07,50,11.30
2018,05,05,07,51,11.30
2018,05,05,07,52,11.30
2018,05,05,07,53,11.30
2018,05,05,07,54,11.30
2018,05,05,07,55,11.30
2018,05,05,07,56,11.40
2018,05,05,07,57,11.40
2018,05,05,07,58,11.40
2018,05,05,07,59,11.40
2018,05,05,08,00,11.40
2018,05,05,08,01,11.40
2018,05,05,08,02,11.40
2018,05,05,08,03,11.50
2018,05,05,08,04,11.50
2018,05,05,08,05,11.50
2018,05,05,08,06,11.60
2018,05,05,08,07,11.60
2018,05,05,08,08,11.50
2018,05,05,08,09,11.50
2018,05,05,08,10,11.50
2018,05,05,08,11,11.50
2018,05,05,08,12,11.50
2018,05,05,08,13,11.50
2018,05,05,08,14,11.50
2018,05,05,08,15,11.60
2018,05,05,08,16,11.60
2018,05,05,08,17,11.60
2018,05,05,08,18,11.60
2018,05,05,08,19,11.70
2018,05,05,08,20,11.80
2018,05,05,08,21,11.80
2018,05,05,08,22,11.90
2018,05,05,08,23,11.90
2018,05,05,08,24,11.90
2018,05,05,08,25,12.00
2018,05,05,08,26,12.10
2018,05,05,08,27,12.10
2018,05,05,08,28,12.20
2018,05,05,08,29,12.20
2018,05,05,08,30,12.30
2018,05,05,08,31,12.40
2018,05,05,08,32,12.50
2018,05,05,08,33,12.50
2018,05,05,08,34,12.50
2018,05,05,08,35,12.50
2018,05,05,08,36,12.40
2018,05,05,08,37,12.40
2018,05,05,08,38,12.40
2018,05,05,08,39,12.40
2018,05,05,08,40,12.50
2018,05,05,08,41,12.50
2018,05,05,08,42,12.60
2018,05,05,08,43,12.70
2018,05,05,08,44,12.80
2018,05,05,08,45,12.80
2018,05,05,08,46,12.90
2018,05,05,08,47,13.00
2018,05,05,08,48,13.10
2018,05,05,08,49,13.20
2018,05,05,08,50,13.30
2018,05,05,08,51,13.40
2018,05,05,08,52,13.50
2018,05,05,08,53,13.60
2018,05,05,08,54,13.50
2018,05,05,08,55,13.40
2018,05,05,08,56,13.30
2018,05,05,08,57,13.20
2018,05,05,08,58,13.10
2018,05,05,08,59,13.00
2018,05,05,09,00,13.00
2018,05,05,09,01,13.00
2018,05,05,09,02,13.10
2018,05,05,09,03,13.10
2018,05,05,09,04,13.10
2018,05,05,09,05,13.20
2018,05,05,09,06,13.20
2018,05,05,09,07,13.30
2018,05,05,09,08,13.40
2018,05,05,09,09,13.40
2018,05,05,09,10,13.30
2018,05,05,09,11,13.30
2018,05,05,09,12,13.30
2018,05,05,09,13,13.30
2018,05,05,09,14,13.30
2018,05,05,09,15,13.30
2018,05,05,09,16,13.40
2018,05,05,09,17,13.40
2018,05,05,09,18,13.40
2018,05,05,09,19,13.50
2018,05,05,09,20,13.50
2018,05,05,09,21,13.50
2018,05,05,09,22,13.50
2018,05,05,09,23,13.60
2018,05,05,09,24,13.60
2018,05,05,09,25,13.60
2018,05,05,09,26,13.60
2018,05,05,09,27,13.60
2018,05,05,09,28,13.60
2018,05,05,09,29,13.70
2018,05,05,09,30,13.80
2018,05,05,09,31,13.90
2018,05,05,09,32,13.90
2018,05,05,09,33,14.00
2018,05,05,09,34,14.10
2018,05,05,09,35,14.20
2018,05,05,09,36,14.10
2018,05,05,09,37,14.10
2018,05,05,09,38,14.10
2018,05,05,09,39,14.20
2018,05,05,09,40,14.20
2018,05,05,09,41,14.30
2018,05,05,09,42,14.40
2018,05,05,09,43,14.50
2018,05,05,09,44,14.50
2018,05,05,09,45,14.50
2018,05,05,09,46,14.50
2018,05,05,09,47,14.50
2018,05,05,09,48,14.40
2018,05,05,09,49,14.20
2018,05,05,09,50,14.10
2018,05,05,09,51,14.00
2018,05,05,09,52,14.10
2018,05,05,09,53,14.10
2018,05,05,09,54,14.20
2018,05,05,09,55,14.40
2018,05,05,09,56,14.50
2018,05,05,09,57,14.60
2018,05,05,09,58,14.50
2018,05,05,09,59,14.50
2018,05,05,10,00,14.40
2018,05,05,10,01,14.30
2018,05,05,10,02,14.30
2018,05,05,10,03,14.30
2018,05,05,10,04,14.40
2018,05,05,10,05,14.40
2018,05,05,10,06,14.40
2018,05,05,10,07,14.40
2018,05,05,10,08,14.50
2018,05,05,10,09,14.70
2018,05,05,10,10,14.80
2018,05,05,10,11,15.00
2018,05,05,10,12,15.10
2018,05,05,10,13,15.20
2018,05,05,10,14,15.20
2018,05,05,10,15,15.10
2018,05,05,10,16,15.10
2018,05,05,10,17,15.00
2018,05,05,10,18,14.90
2018,05,05,10,19,14.90
2018,05,05,10,20,14.80
2018,05,05,10,21,14.80
2018,05,05,10,22,14.70
2018,05,05,10,23,14.80
2018,05,05,10,24,14.80
2018,05,05,10,25,14.90
2018,05,05,10,26,14.90
2018,05,05,10,27,15.00
2018,05,05,10,28,15.10
2018,05,05,10,29,15.10
2018,05,05,10,30,15.00
2018,05,05,10,31,15.10
2018,05,05,10,32,15.20
2018,05,05,10,33,15.20
2018,05,05,10,34,15.20
2018,05,05,10,35,15.20
2018,05,05,10,36,15.20
2018,05,05,10,37,15.20
2018,05,05,10,38,15.20
2018,05,05,10,39,15.20
2018,05,05,10,40,15.30
2018,05,05,10,41,15.30
2018,05,05,10,42,15.40
2018,05,05,10,43,15.40
2018,05,05,10,44,15.40
2018,05,05,10,45,15.40
2018,05,05,10,46,15.30
2018,05,05,10,47,15.30
2018,05,05,10,48,15.30
2018,05,05,10,49,15.40
2018,05,05,10,50,15.50
2018,05,05,10,51,15.70
2018,05,05,10,52,15.80
2018,05,05,10,53,15.80
2018,05,05,10,54,15.70
2018,05,05,10,55,15.60
2018,05,05,10,56,15.50
2018,05,05,10,57,15.40
2018,05,05,10,58,15.30
2018,05,05,10,59,15.20
2018,05,05,11,00,15.20
2018,05,05,11,01,15.20
2018,05,05,11,02,15.20
2018,05,05,11,03,15.20
2018,05,05,11,04,15.30
2018,05,05,11,05,15.50
2018,05,05,11,06,15.60
2018,05,05,11,07,15.80
2018,05,05,11,08,15.90
2018,05,05,11,09,16.00
2018,05,05,11,10,16.00
2018,05,05,11,11,16.00
2018,05,05,11,12,16.10
2018,05,05,11,13,16.10
2018,05,05,11,14,16.10
2018,05,05,11,15,16.20
2018,05,05,11,16,16.30
2018,05,05,11,17,16.30
2018,05,05,11,18,16.40
2018,05,05,11,19,16.60
2018,05,05,11,20,16.60
2018,05,05,11,21,16.70
2018,05,05,11,22,16.70
2018,05,05,11,23,16.80
2018,05,05,11,24,16.80
2018,05,05,11,25,16.80
2018,05,05,11,26,16.90
2018,05,05,11,27,17.00
2018,05,05,11,28,17.20
2018,05,05,11,29,17.30
2018,05,05,11,30,17.30
2018,05,05,11,31,17.30
2018,05,05,11,32,17.20
2018,05,05,11,33,17.20
2018,05,05,11,34,17.00
2018,05,05,11,35,16.80
2018,05,05,11,36,16.70
2018,05,05,11,37,16.70
2018,05,05,11,38,16.70
2018,05,05,11,39,16.70
2018,05,05,11,40,16.80
2018,05,05,11,41,17.00
2018,05,05,11,42,17.10
2018,05,05,11,43,17.20
2018,05,05,11,44,17.20
2018,05,05,11,45,17.10
2018,05,05,11,46,16.90
2018,05,05,11,47,16.80
2018,05,05,11,48,16.70
2018,05,05,11,49,16.60
2018,05,05,11,50,16.60
2018,05,05,11,51,16.60
2018,05,05,11,52,16.60
2018,05,05,11,53,16.50
2018,05,05,11,54,16.50
2018,05,05,11,55,16.60
2018,05,05,11,56,16.60
2018,05,05,11,57,16.60
2018,05,05,11,58,16.70
2018,05,05,11,59,16.70
2018,05,05,12,00,16.70
2018,05,05,12,01,16.70
2018,05,05,12,02,16.70
2018,05,05,12,03,16.70
2018,05,05,12,04,16.70
2018,05,05,12,05,16.60
2018,05,05,12,06,16.50
2018,05,05,12,07,16.50
2018,05,05,12,08,16.40
2018,05,05,12,09,16.30
2018,05,05,12,10,16.30
2018,05,05,12,11,16.30
2018,05,05,12,12,16.30
2018,05,05,12,13,16.40
2018,05,05,12,14,16.40
2018,05,05,12,15,16.40
2018,05,05,12,16,16.40
2018,05,05,12,17,16.40
2018,05,05,12,18,16.50
2018,05,05,12,19,16.50
2018,05,05,12,20,16.60
2018,05,05,12,21,16.60
2018,05,05,12,22,16.60
2018,05,05,12,23,16.60
2018,05,05,12,24,16.50
2018,05,05,12,25,16.40
2018,05,05,12,26,16.40
2018,05,05,12,27,16.60
2018,05,05,12,28,16.70
2018,05,05,12,29,16.80
2018,05,05,12,30,16.90
2018,05,05,12,31,16.90
2018,05,05,12,32,17.00
2018,05,05,12,33,17.00
2018,05,05,12,34,17.10
2018,05,05,12,35,17.10
2018,05,05,12,36,17.10
2018,05,05,12,37,17.20
2018,05,05,12,38,17.30
2018,05,05,12,39,17.40
2018,05,05,12,40,17.40
2018,05,05,12,41,17.40
2018,05,05,12,42,17.40
2018,05,05,12,43,17.40
2018,05,05,12,44,17.50
2018,05,05,12,45,17.50
2018,05,05,12,46,17.60
2018,05,05,12,47,17.70
2018,05,05,12,48,17.70
2018,05,05,12,49,17.70
2018,05,05,12,50,17.70
2018,05,05,12,51,17.70
2018,05,05,12,52,17.60
2018,05,05,12,53,17.40
2018,05,05,12,54,17.40
2018,05,05,12,55,17.40
2018,05,05,12,56,17.40
2018,05,05,12,57,17.40
2018,05,05,12,58,17.50
2018,05,05,12,59,17.60
2018,05,05,13,00,17.70
2018,05,05,13,01,17.70
2018,05,05,13,02,17.70
2018,05,05,13,03,17.80
2018,05,05,13,04,17.90
2018,05,05,13,05,17.90
2018,05,05,13,06,17.90
2018,05,05,13,07,17.80
2018,05,05,13,08,17.70
2018,05,05,13,09,17.60
2018,05,05,13,10,17.60
2018,05,05,13,11,17.70
2018,05,05,13,12,17.80
2018,05,05,13,13,17.90
2018,05,05,13,14,18.00
2018,05,05,13,15,18.10
2018,05,05,13,16,18.20
2018,05,05,13,17,18.40
2018,05,05,13,18,18.40
2018,05,05,13,19,18.50
2018,05,05,13,20,18.60
2018,05,05,13,21,18.60
2018,05,05,13,22,18.70
2018,05,05,13,23,18.70
2018,05,05,13,24,18.80
2018,05,05,13,25,18.90
2018,05,05,13,26,19.00
2018,05,05,13,27,19.10
2018,05,05,13,28,19.30
2018,05,05,13,29,19.20
2018,05,05,13,30,19.00
2018,05,05,13,31,18.80
2018,05,05,13,32,18.70
2018,05,05,13,33,18.60
2018,05,05,13,34,18.60
2018,05,05,13,35,18.50
2018,05,05,13,36,18.40
2018,05,05,13,37,18.40
2018,05,05,13,38,18.40
2018,05,05,13,39,18.30
2018,05,05,13,40,18.30
2018,05,05,13,41,18.30
2018,05,05,13,42,18.30
2018,05,05,13,43,18.20
2018,05,05,13,44,18.00
2018,05,05,13,45,17.90
2018,05,05,13,46,17.80
2018,05,05,13,47,17.90
2018,05,05,13,48,18.10
2018,05,05,13,49,18.10
2018,05,05,13,50,18.10
2018,05,05,13,51,18.20
2018,05,05,13,52,18.20
2018,05,05,13,53,18.20
2018,05,05,13,54,18.10
2018,05,05,13,55,18.10
2018,05,05,13,56,18.10
2018,05,05,13,57,18.20
2018,05,05,13,58,18.20
2018,05,05,13,59,18.20
2018,05,05,14,00,18.30
2018,05,05,14,01,18.20
2018,05,05,14,02,18.30
2018,05,05,14,03,18.30
2018,05,05,14,04,18.40
2018,05,05,14,05,18.30
2018,05,05,14,06,18.30
2018,05,05,14,07,18.30
2018,05,05,14,08,18.30
2018,05,05,14,09,18.30
2018,05,05,14,10,18.30
2018,05,05,14,11,18.40
2018,05,05,14,12,18.50
2018,05,05,14,13,18.50
2018,05,05,14,14,18.40
2018,05,05,14,15,18.40
2018,05,05,14,16,18.40
2018,05,05,14,17,18.40
2018,05,05,14,18,18.40
2018,05,05,14,19,18.40
2018,05,05,14,20,18.40
2018,05,05,14,21,18.40
2018,05,05,14,22,18.40
2018,05,05,14,23,18.30
2018,05,05,14,24,18.40
2018,05,05,14,25,18.60
2018,05,05,14,26,18.70
2018,05,05,14,27,18.70
2018,05,05,14,28,18.60
2018,05,05,14,29,18.50
2018,05,05,14,30,18.40
2018,05,05,14,31,18.40
2018,05,05,14,32,18.40
2018,05,05,14,33,18.30
2018,05,05,14,34,18.30
2018,05,05,14,35,18.40
2018,05,05,14,36,18.50
2018,05,05,14,37,18.50
2018,05,05,14,38,18.60
2018,05,05,14,39,18.60
2018,05,05,14,40,18.60
2018,05,05,14,41,18.50
2018,05,05,14,42,18.50
2018,05,05,14,43,18.60
2018,05,05,14,44,18.50
2018,05,05,14,45,18.40
2018,05,05,14,46,18.30
2018,05,05,14,47,18.30
2018,05,05,14,48,18.20
2018,05,05,14,49,18.20
2018,05,05,14,50,18.40
2018,05,05,14,51,18.50
2018,05,05,14,52,18.70
2018,05,05,14,53,18.70
2018,05,05,14,54,18.80
2018,05,05,14,55,18.80
2018,05,05,14,56,18.80
2018,05,05,14,57,18.80
2018,05,05,14,58,18.80
2018,05,05,14,59,18.80
2018,05,05,15,00,18.80
2018,05,05,15,01,18.90
2018,05,05,15,02,18.90
2018,05,05,15,03,19.10
2018,05,05,15,04,19.10
2018,05,05,15,05,19.20
2018,05,05,15,06,19.30
2018,05,05,15,07,19.30
2018,05,05,15,08,19.40
2018,05,05,15,09,19.40
2018,05,05,15,10,19.40
2018,05,05,15,11,19.40
2018,05,05,15,12,19.40
2018,05,05,15,13,19.30
2018,05,05,15,14,19.30
2018,05,05,15,15,19.20
2018,05,05,15,16,19.00
2018,05,05,15,17,18.80
2018,05,05,15,18,18.70
2018,05,05,15,19,18.80
2018,05,05,15,20,18.80
2018,05,05,15,21,18.80
2018,05,05,15,22,18.70
2018,05,05,15,23,18.70
2018,05,05,15,24,18.70
2018,05,05,15,25,18.70
2018,05,05,15,26,18.70
2018,05,05,15,27,18.70
2018,05,05,15,28,18.80
2018,05,05,15,29,18.90
2018,05,05,15,30,18.90
2018,05,05,15,31,18.90
2018,05,05,15,32,18.80
2018,05,05,15,33,18.70
2018,05,05,15,34,18.70
2018,05,05,15,35,18.80
2018,05,05,15,36,18.90
2018,05,05,15,37,18.90
2018,05,05,15,38,18.80
2018,05,05,15,39,18.90
2018,05,05,15,40,18.90
2018,05,05,15,41,18.90
2018,05,05,15,42,18.90
2018,05,05,15,43,18.80
2018,05,05,15,44,18.80
2018,05,05,15,45,18.80
2018,05,05,15,46,18.90
2018,05,05,15,47,18.90
2018,05,05,15,48,18.80
2018,05,05,15,49,18.70
2018,05,05,15,50,18.80
2018,05,05,15,51,18.80
2018,05,05,15,52,18.90
2018,05,05,15,53,19.00
2018,05,05,15,54,19.10
2018,05,05,15,55,19.10
2018,05,05,15,56,19.10
2018,05,05,15,57,19.00
2018,05,05,15,58,18.90
2018,05,05,15,59,19.00
2018,05,05,16,00,19.00
2018,05,05,16,01,19.00
2018,05,05,16,02,19.10
2018,05,05,16,03,19.00
2018,05,05,16,04,18.90
2018,05,05,16,05,18.80
2018,05,05,16,06,18.70
2018,05,05,16,07,18.60
2018,05,05,16,08,18.60
2018,05,05,16,09,18.70
2018,05,05,16,10,18.70
2018,05,05,16,11,18.70
2018,05,05,16,12,18.70
2018,05,05,16,13,18.80
2018,05,05,16,14,18.80
2018,05,05,16,15,18.80
2018,05,05,16,16,18.70
2018,05,05,16,17,18.60
2018,05,05,16,18,18.60
2018,05,05,16,19,18.60
2018,05,05,16,20,18.60
2018,05,05,16,21,18.60
2018,05,05,16,22,18.70
2018,05,05,16,23,18.80
2018,05,05,16,24,18.80
2018,05,05,16,25,18.90
2018,05,05,16,26,19.00
2018,05,05,16,27,19.00
2018,05,05,16,28,19.00
2018,05,05,16,29,19.00
2018,05,05,16,30,18.90
2018,05,05,16,31,18.90
2018,05,05,16,32,18.80
2018,05,05,16,33,18.80
2018,05,05,16,34,18.90
2018,05,05,16,35,19.00
2018,05,05,16,36,19.10
2018,05,05,16,37,19.20
2018,05,05,16,38,19.30
2018,05,05,16,39,19.30
2018,05,05,16,40,19.30
2018,05,05,16,41,19.30
2018,05,05,16,42,19.20
2018,05,05,16,43,19.20
2018,05,05,16,44,19.20
2018,05,05,16,45,19.20
2018,05,05,16,46,19.10
2018,05,05,16,47,19.00
2018,05,05,16,48,18.90
2018,05,05,16,49,19.00
2018,05,05,16,50,19.00
2018,05,05,16,51,19.00
2018,05,05,16,52,19.00
2018,05,05,16,53,19.10
2018,05,05,16,54,19.10
2018,05,05,16,55,19.20
2018,05,05,16,56,19.20
2018,05,05,16,57,19.20
2018,05,05,16,58,19.20
2018,05,05,16,59,19.20
2018,05,05,17,00,19.20
2018,05,05,17,01,19.30
2018,05,05,17,02,19.40
2018,05,05,17,03,19.40
2018,05,05,17,04,19.50
2018,05,05,17,05,19.50
2018,05,05,17,06,19.40
2018,05,05,17,07,19.50
2018,05,05,17,08,19.50
2018,05,05,17,09,19.50
2018,05,05,17,10,19.40
2018,05,05,17,11,19.40
2018,05,05,17,12,19.40
2018,05,05,17,13,19.40
2018,05,05,17,14,19.40
2018,05,05,17,15,19.40
2018,05,05,17,16,19.30
2018,05,05,17,17,19.20
2018,05,05,17,18,19.10
2018,05,05,17,19,19.10
2018,05,05,17,20,19.10
2018,05,05,17,21,19.10
2018,05,05,17,22,19.20
2018,05,05,17,23,19.20
2018,05,05,17,24,19.20
2018,05,05,17,25,19.10
2018,05,05,17,26,19.10
2018,05,05,17,27,19.10
2018,05,05,17,28,19.20
2018,05,05,17,29,19.30
2018,05,05,17,30,19.30
2018,05,05,17,31,19.30
2018,05,05,17,32,19.20
2018,05,05,17,33,19.30
2018,05,05,17,34,19.30
2018,05,05,17,35,19.30
2018,05,05,17,36,19.30
2018,05,05,17,37,19.30
2018,05,05,17,38,19.40